FLOCK 3P-13 (42040 NORAD) Tracking and Keplerian Element Data

This shows tracking and keplerian element data for the satellite.

Feedback or suggestion? Click here.




ElementValue
Catalog42040
NameFLOCK 3P-13
Epoch Orbit17296
Epoch Day91.90598973
Epoch Year2020
RAAN161.3506
Inclination97.3716
Eccentricity0.0006
Argument of Perigee217.7107
Mean Anonmoly142.3712
Mean Motion15.27352652
Decay Rate3.032E-05
L11 42040U 17008CW 20091.90598973 .00003032 00000-0 11592-3 0 9997
L22 42040 97.3716 161.3506 0006000 217.7107 142.3712 15.27352652172961

Live tracking and technical data element details for FLOCK 3P-13 (NORAD 42040). FLOCK 3P-13 can be tracked NOW for your location showing map with azimuth and elevation plus other details from your city location.

Track the satellite on the map from your city or location and see movement details for azimuth, elevation, latitude, longitude, range, height, and movement on the map or in text.







IsCatalogInMostPopularTable: catalog: 42040, numindb: 370
Update: records affected: 1



GetName: 42040 FLOCK 3P-13

Hit Count: updated at: Fri, 03 Apr 2020 07:43:07 GMT